"read_dt","SO2 (ppb)","flags","PMT voltage (V)","lamp voltage (V)","lamp intensity (Hz)","internal temp (C)","react chamber temp (C)","sample flow (l/min)","pres (mmHg)","SO2 bkg (ppb)","SO2 coefficient"
2018-06-25 00:00:00,-2.570E-01,4C000000*,-702.6,964.192,91,33.5,45.0,0.408,734.5,2.1,1.050*
2018-06-25 00:01:00,-3.432E-01,4C000000*,-702.3,964.597,90,33.5,45.2,0.408,734.5,2.1,1.050*
2018-06-25 00:02:00,-3.088E-01,4C000000*,-702.6,965.001,90,33.5,45.1,0.408,734.5,2.1,1.050*
2018-06-25 00:03:00,-3.314E-01,4C000000*,-702.6,965.001,89,33.5,45.0,0.408,734.8,2.1,1.050*
2018-06-25 00:04:00,-2.806E-01,4C000000*,-703.0,965.001,89,33.5,45.1,0.408,734.5,2.1,1.050*
2018-06-25 00:05:00,-4.096E-01,4C000000*,-702.6,964.597,90,33.5,44.9,0.408,734.8,2.1,1.050*
2018-06-25 00:06:00,-4.120E-01,4C000000*,-702.3,963.384,89,33.5,45.1,0.408,734.5,2.1,1.050*
2018-06-25 00:07:00,-3.082E-01,4C000000*,-702.3,965.405,90,33.5,44.9,0.408,734.8,2.1,1.050*
2018-06-25 00:08:00,-3.156E-01,4C000000*,-702.6,964.192,90,33.5,45.2,0.408,734.8,2.1,1.050*
2018-06-25 00:09:00,-3.715E-01,4C000000*,-702.6,964.192,91,33.4,45.1,0.408,734.8,2.1,1.050*
2018-06-25 00:10:00,-3.408E-01,4C000000*,-702.6,965.001,89,33.5,45.0,0.408,734.8,2.1,1.050*
2018-06-25 00:11:00,-3.492E-01,4C000000*,-702.3,964.192,90,33.5,45.0,0.408,734.8,2.1,1.050*
2018-06-25 00:12:00,-3.658E-01,4C000000*,-702.6,965.405,91,33.4,44.9,0.408,734.8,2.1,1.050*
2018-06-25 00:13:00,-3.726E-01,4C000000*,-702.6,964.597,88,33.5,45.2,0.408,734.8,2.1,1.050*
2018-06-25 00:14:00,-3.188E-01,4C000000*,-702.6,965.001,90,33.5,44.9,0.408,734.8,2.1,1.050*
2018-06-25 00:15:00,-3.344E-01,4C000000*,-702.6,965.405,90,33.5,45.2,0.408,734.8,2.1,1.050*
2018-06-25 00:16:00,-3.955E-01,4C000000*,-702.6,964.192,90,33.4,45.0,0.408,734.8,2.1,1.050*
2018-06-25 00:17:00,-3.773E-01,4C000000*,-702.6,964.192,89,33.5,45.1,0.408,734.8,2.1,1.050*
2018-06-25 00:18:00,-3.232E-01,4C000000*,-703.0,965.405,89,33.5,45.0,0.408,734.8,2.1,1.050*
2018-06-25 00:19:00,-3.483E-01,4C000000*,-702.3,964.597,89,33.4,44.9,0.408,734.8,2.1,1.050*
2018-06-25 00:20:00,-3.264E-01,4C000000*,-702.6,964.597,88,33.4,45.2,0.408,734.8,2.1,1.050*
2018-06-25 00:21:00,-3.149E-01,4C000000*,-702.6,965.405,90,33.4,44.8,0.408,734.8,2.1,1.050*
2018-06-25 00:22:00,-3.096E-01,4C000000*,-702.6,964.192,89,33.5,45.2,0.408,734.8,2.1,1.050*
2018-06-25 00:23:00,-4.561E-01,4C000000*,-702.6,964.597,91,33.4,45.0,0.408,734.8,2.1,1.050*
2018-06-25 00:24:00,-3.019E-01,4C000000*,-703.0,964.597,90,33.5,45.1,0.408,735.1,2.1,1.050*
2018-06-25 00:25:00,-4.089E-01,4C000000*,-702.6,963.384,90,33.4,45.0,0.408,734.8,2.1,1.050*
2018-06-25 00:26:00,-3.584E-01,4C000000*,-702.3,964.192,91,33.5,44.9,0.408,735.1,2.1,1.050*
2018-06-25 00:27:00,-3.752E-01,4C000000*,-702.3,964.597,90,33.5,45.2,0.408,734.8,2.1,1.050*
2018-06-25 00:28:00,-2.373E-01,4C000000*,-703.0,965.405,88,33.4,44.8,0.408,734.8,2.1,1.050*
2018-06-25 00:29:00,-2.840E-01,4C000000*,-702.3,965.809,91,33.5,45.2,0.408,735.1,2.1,1.050*
2018-06-25 00:30:00,-4.238E-01,4C000000*,-702.6,965.001,90,33.4,45.0,0.408,735.1,2.1,1.050*
2018-06-25 00:31:00,-3.650E-01,4C000000*,-702.3,965.405,91,33.4,45.0,0.408,735.1,2.1,1.050*
2018-06-25 00:32:00,-3.350E-01,4C000000*,-702.6,965.001,89,33.4,45.1,0.408,734.8,2.1,1.050*
2018-06-25 00:33:00,-3.882E-01,4C000000*,-702.6,965.405,89,33.4,45.0,0.408,735.1,2.1,1.050*
2018-06-25 00:34:00,-4.329E-01,4C000000*,-702.6,965.001,91,33.4,45.2,0.408,734.8,2.1,1.050*
2018-06-25 00:35:00,-3.774E-01,4C000000*,-702.6,965.405,91,33.4,44.8,0.408,735.1,2.1,1.050*
2018-06-25 00:36:00,-3.431E-01,4C000000*,-702.6,965.001,90,33.4,45.2,0.408,735.1,2.1,1.050*
2018-06-25 00:37:00,-3.231E-01,4C000000*,-702.3,964.192,90,33.4,45.0,0.408,735.1,2.1,1.050*
2018-06-25 00:38:00,-3.601E-01,4C000000*,-702.6,965.809,89,33.4,45.1,0.408,735.1,2.1,1.050*
2018-06-25 00:39:00,-3.599E-01,4C000000*,-702.3,964.192,91,33.4,45.0,0.407,735.1,2.1,1.050*
2018-06-25 00:40:00,-3.298E-01,4C000000*,-702.3,964.597,91,33.4,45.0,0.408,735.1,2.1,1.050*
2018-06-25 00:41:00,-3.643E-01,4C000000*,-702.6,964.192,89,33.4,45.2,0.407,735.1,2.1,1.050*
2018-06-25 00:42:00,-4.147E-01,4C000000*,-702.6,965.809,89,33.4,44.9,0.408,735.1,2.1,1.050*
2018-06-25 00:43:00,-3.680E-01,4C000000*,-702.6,964.192,90,33.4,45.1,0.408,735.1,2.1,1.050*
2018-06-25 00:44:00,-2.958E-01,4C000000*,-702.6,964.192,89,33.4,44.9,0.408,735.1,2.1,1.050*
2018-06-25 00:45:00,-2.941E-01,4C000000*,-702.6,966.214,91,33.4,45.2,0.408,735.1,2.1,1.050*
2018-06-25 00:46:00,-3.548E-01,4C000000*,-702.3,964.597,90,33.3,45.1,0.408,735.1,2.1,1.050*
2018-06-25 00:47:00,-2.920E-01,4C000000*,-702.6,965.001,88,33.4,45.0,0.408,735.1,2.1,1.050*
2018-06-25 00:48:00,-3.236E-01,4C000000*,-702.3,964.597,90,33.4,45.1,0.408,735.1,2.1,1.050*
2018-06-25 00:49:00,-2.428E-01,4C000000*,-702.6,965.001,90,33.4,44.9,0.408,735.1,2.1,1.050*
2018-06-25 00:50:00,-3.524E-01,4C000000*,-702.6,964.192,90,33.3,45.1,0.408,735.1,2.1,1.050*
2018-06-25 00:51:00,-3.973E-01,4C000000*,-703.0,965.405,89,33.3,44.9,0.408,735.1,2.1,1.050*
2018-06-25 00:52:00,-3.432E-01,4C000000*,-702.3,965.001,90,33.4,45.2,0.408,735.4,2.1,1.050*
2018-06-25 00:53:00,-4.227E-01,4C000000*,-702.3,965.001,90,33.3,45.0,0.408,735.1,2.1,1.050*
2018-06-25 00:54:00,-3.716E-01,4C000000*,-702.6,965.001,91,33.3,45.0,0.408,735.1,2.1,1.050*
2018-06-25 00:55:00,-3.729E-01,4C000000*,-702.6,963.384,90,33.3,45.1,0.408,735.1,2.1,1.050*
2018-06-25 00:56:00,-3.510E-01,4C000000*,-702.6,964.192,89,33.3,44.9,0.408,735.1,2.1,1.050*
2018-06-25 00:57:00,-3.468E-01,4C000000*,-702.3,965.405,89,33.3,45.2,0.408,735.1,2.1,1.050*
2018-06-25 00:58:00,-2.698E-01,4C000000*,-702.3,965.001,89,33.3,44.9,0.408,735.1,2.1,1.050*
2018-06-25 00:59:00,-3.452E-01,4C000000*,-703.0,965.001,90,33.3,45.2,0.408,735.1,2.1,1.050*
2018-06-25 01:00:00,-3.543E-01,4C000000*,-703.0,963.788,89,33.3,45.0,0.408,735.1,2.1,1.050*
2018-06-25 01:01:00,-3.551E-01,4C000000*,-703.0,964.192,90,33.3,44.8,0.408,735.1,2.1,1.050*
2018-06-25 01:02:00,-3.333E-01,4C000000*,-703.0,965.809,89,33.3,45.2,0.408,735.1,2.1,1.050*
2018-06-25 01:03:00,-3.856E-01,4C000000*,-702.3,963.788,90,33.3,45.0,0.408,734.8,2.1,1.050*
2018-06-25 01:04:00,-3.644E-01,4C000000*,-702.6,965.001,90,33.3,44.9,0.408,735.1,2.1,1.050*
2018-06-25 01:05:00,-3.757E-01,4C000000*,-701.9,965.001,89,33.3,45.2,0.408,735.1,2.1,1.050*
2018-06-25 01:06:00,-3.383E-01,4C000000*,-702.6,964.597,90,33.2,44.9,0.408,735.1,2.1,1.050*
2018-06-25 01:07:00,-3.433E-01,4C000000*,-703.0,965.001,90,33.3,45.2,0.408,735.1,2.1,1.050*
2018-06-25 01:08:00,-3.747E-01,4C000000*,-702.3,963.384,90,33.3,44.9,0.408,735.1,2.1,1.050*
2018-06-25 01:09:00,-4.292E-01,4C000000*,-703.0,965.809,90,33.3,45.1,0.408,735.1,2.1,1.050*
2018-06-25 01:10:00,-4.212E-01,4C000000*,-702.3,964.192,89,33.2,45.1,0.408,735.1,2.1,1.050*
2018-06-25 01:11:00,-4.151E-01,4C000000*,-702.6,964.597,91,33.3,45.0,0.408,735.4,2.1,1.050*
2018-06-25 01:12:00,-3.092E-01,4C000000*,-702.6,964.597,90,33.3,45.1,0.408,735.1,2.1,1.050*
2018-06-25 01:13:00,-3.058E-01,4C000000*,-702.6,964.192,88,33.2,44.8,0.408,735.1,2.1,1.050*
2018-06-25 01:14:00,-4.326E-01,4C000000*,-702.6,965.405,89,33.3,45.1,0.408,735.1,2.1,1.050*
2018-06-25 01:15:00,-3.189E-01,4C000000*,-702.6,964.597,89,33.2,44.9,0.408,735.1,2.1,1.050*
2018-06-25 01:16:00,-3.902E-01,4C000000*,-702.3,964.192,90,33.2,45.2,0.408,735.4,2.1,1.050*
2018-06-25 01:17:00,-4.158E-01,4C000000*,-702.6,963.788,90,33.3,45.1,0.408,735.1,2.1,1.050*
2018-06-25 01:18:00,-3.201E-01,4C000000*,-702.3,964.192,90,33.2,45.0,0.408,735.4,2.1,1.050*
2018-06-25 01:19:00,-3.616E-01,4C000000*,-702.6,963.384,91,33.2,45.1,0.408,735.1,2.1,1.050*
2018-06-25 01:20:00,-3.781E-01,4C000000*,-703.0,964.597,88,33.2,44.9,0.408,735.4,2.1,1.050*
2018-06-25 01:21:00,-3.843E-01,4C000000*,-702.6,963.788,89,33.2,45.1,0.408,735.1,2.1,1.050*
2018-06-25 01:22:00,-3.920E-01,4C000000*,-702.6,965.001,90,33.2,44.9,0.407,735.1,2.1,1.050*
2018-06-25 01:23:00,-3.327E-01,4C000000*,-702.6,965.405,91,33.3,45.2,0.408,735.4,2.1,1.050*
2018-06-25 01:24:00,-2.612E-01,4C000000*,-702.6,965.001,90,33.2,45.0,0.408,735.4,2.1,1.050*
2018-06-25 01:25:00,-2.887E-01,4C000000*,-702.6,963.384,91,33.2,45.0,0.408,735.1,2.1,1.050*
2018-06-25 01:26:00,-3.939E-01,4C000000*,-702.6,964.192,91,33.2,45.0,0.408,735.4,2.1,1.050*
2018-06-25 01:27:00,-3.662E-01,4C000000*,-702.6,964.192,90,33.2,44.9,0.408,735.4,2.1,1.050*
2018-06-25 01:28:00,-3.940E-01,4C000000*,-702.6,962.979,90,33.2,45.2,0.408,735.4,2.1,1.050*
2018-06-25 01:29:00,-4.045E-01,4C000000*,-702.3,964.192,90,33.1,44.9,0.408,735.4,2.1,1.050*
2018-06-25 01:30:00,-2.782E-01,4C000000*,-702.6,965.001,90,33.2,45.2,0.408,735.4,2.1,1.050*
2018-06-25 01:31:00,-3.819E-01,4C000000*,-702.6,963.788,89,33.1,45.0,0.408,735.4,2.1,1.050*
2018-06-25 01:32:00,-3.351E-01,4C000000*,-703.0,962.979,88,33.1,45.0,0.408,735.4,2.1,1.050*
2018-06-25 01:33:00,-3.763E-01,4C000000*,-702.3,964.192,90,33.2,45.0,0.408,735.4,2.1,1.050*
2018-06-25 01:34:00,-3.351E-01,4C000000*,-702.6,965.001,90,33.2,44.9,0.408,735.4,2.1,1.050*
2018-06-25 01:35:00,-3.121E-01,4C000000*,-702.6,964.597,90,33.1,45.2,0.408,735.4,2.1,1.050*
2018-06-25 01:36:00,-3.124E-01,4C000000*,-702.6,964.192,90,33.1,44.9,0.408,735.4,2.1,1.050*
2018-06-25 01:37:00,-2.878E-01,4C000000*,-702.6,965.001,90,33.1,45.2,0.408,735.4,2.1,1.050*
2018-06-25 01:38:00,-2.238E-01,4C000000*,-702.6,964.192,90,33.2,44.9,0.408,735.4,2.1,1.050*
2018-06-25 01:39:00,-3.579E-01,4C000000*,-702.6,965.405,91,33.2,45.0,0.408,735.4,2.1,1.050*
2018-06-25 01:40:00,-3.864E-01,4C000000*,-702.3,963.788,90,33.1,45.0,0.408,735.1,2.1,1.050*
2018-06-25 01:41:00,-2.857E-01,4C000000*,-702.6,965.809,90,33.1,44.9,0.408,735.4,2.1,1.050*
2018-06-25 01:42:00,-3.423E-01,4C000000*,-703.0,964.192,90,33.1,45.2,0.408,735.4,2.1,1.050*
2018-06-25 01:43:00,-3.493E-01,4C000000*,-702.6,965.001,90,33.0,44.9,0.408,735.4,2.1,1.050*
2018-06-25 01:44:00,-4.165E-01,4C000000*,-702.6,964.597,90,33.2,45.2,0.408,735.4,2.1,1.050*
2018-06-25 01:45:00,-3.867E-01,4C000000*,-702.6,965.405,90,33.1,45.0,0.408,735.4,2.1,1.050*
2018-06-25 01:46:00,-3.461E-01,4C000000*,-702.6,964.192,89,33.1,45.1,0.408,735.4,2.1,1.050*
2018-06-25 01:47:00,-3.848E-01,4C000000*,-702.6,965.001,90,33.1,45.0,0.408,735.4,2.1,1.050*
2018-06-25 01:48:00,-3.052E-01,4C000000*,-702.6,964.192,89,33.0,44.9,0.408,735.4,2.1,1.050*
2018-06-25 01:49:00,-3.521E-01,4C000000*,-702.6,965.001,90,33.0,45.2,0.408,735.4,2.1,1.050*
2018-06-25 01:50:00,-3.494E-01,4C000000*,-702.6,965.001,91,33.1,44.9,0.408,735.4,2.1,1.050*
2018-06-25 01:51:00,-3.709E-01,4C000000*,-702.6,964.597,90,33.1,45.1,0.408,735.4,2.1,1.050*
2018-06-25 01:52:00,-3.262E-01,4C000000*,-702.6,964.192,89,33.1,44.9,0.407,735.4,2.1,1.050*
2018-06-25 01:53:00,-3.823E-01,4C000000*,-702.6,963.788,91,33.1,45.1,0.408,735.4,2.1,1.050*
2018-06-25 01:54:00,-3.644E-01,4C000000*,-703.0,965.001,88,33.0,45.0,0.408,735.4,2.1,1.050*
2018-06-25 01:55:00,-2.280E-01,4C000000*,-702.6,964.597,90,33.0,44.9,0.408,735.4,2.1,1.050*
2018-06-25 01:56:00,-2.663E-01,4C000000*,-702.6,965.809,91,33.0,45.2,0.408,735.4,2.1,1.050*
2018-06-25 01:57:00,-3.122E-01,4C000000*,-702.6,964.597,91,33.1,44.9,0.408,735.7,2.1,1.050*
2018-06-25 01:58:00,-3.935E-01,4C000000*,-702.6,965.405,90,33.0,45.1,0.408,735.4,2.1,1.050*
2018-06-25 01:59:00,-3.165E-01,4C000000*,-702.3,964.192,90,33.0,44.9,0.408,735.4,2.1,1.050*
2018-06-25 02:00:00,-3.299E-01,4C000000*,-702.6,964.192,90,33.0,45.2,0.408,735.4,2.1,1.050*
2018-06-25 02:01:00,-3.865E-01,4C000000*,-703.0,963.788,90,33.0,45.1,0.408,735.4,2.1,1.050*
2018-06-25 02:02:00,-3.652E-01,4C000000*,-702.6,963.788,91,33.0,45.0,0.408,735.7,2.1,1.050*
2018-06-25 02:03:00,-3.743E-01,4C000000*,-702.6,965.001,89,33.0,45.0,0.408,735.4,2.1,1.050*
2018-06-25 02:04:00,-3.621E-01,4C000000*,-702.3,965.001,90,33.0,44.9,0.408,735.7,2.1,1.050*
2018-06-25 02:05:00,-3.504E-01,4C000000*,-702.6,965.001,90,33.0,45.2,0.408,735.4,2.1,1.050*
2018-06-25 02:06:00,-3.503E-01,4C000000*,-702.6,964.192,89,32.9,44.9,0.408,735.4,2.1,1.050*
2018-06-25 02:07:00,-3.759E-01,4C000000*,-702.6,965.405,90,33.0,45.2,0.408,735.4,2.1,1.050*
2018-06-25 02:08:00,-3.013E-01,4C000000*,-702.6,963.788,90,33.0,45.0,0.408,735.4,2.1,1.050*
2018-06-25 02:09:00,-3.342E-01,4C000000*,-702.6,963.384,90,33.0,45.0,0.408,735.4,2.1,1.050*
2018-06-25 02:10:00,-2.782E-01,4C000000*,-702.6,964.597,89,33.0,45.0,0.408,735.4,2.1,1.050*
2018-06-25 02:11:00,-3.763E-01,4C000000*,-703.0,963.788,90,33.0,44.9,0.408,735.7,2.1,1.050*
2018-06-25 02:12:00,-3.212E-01,4C000000*,-702.6,963.384,89,32.9,45.2,0.408,735.4,2.1,1.050*
2018-06-25 02:13:00,-3.597E-01,4C000000*,-702.6,964.192,89,33.0,44.9,0.408,735.7,2.1,1.050*
2018-06-25 02:14:00,-3.758E-01,4C000000*,-702.3,964.192,89,33.0,45.2,0.408,735.7,2.1,1.050*
2018-06-25 02:15:00,-4.016E-01,4C000000*,-702.6,964.597,88,32.9,44.9,0.408,735.4,2.1,1.050*
2018-06-25 02:16:00,-2.880E-01,4C000000*,-702.6,965.809,90,33.0,45.1,0.408,735.7,2.1,1.050*
2018-06-25 02:17:00,-4.007E-01,4C000000*,-702.6,964.192,90,32.9,45.0,0.408,735.4,2.1,1.050*
2018-06-25 02:18:00,-3.530E-01,4C000000*,-702.6,965.001,90,32.9,44.9,0.408,735.7,2.1,1.050*
2018-06-25 02:19:00,-3.314E-01,4C000000*,-702.6,964.597,88,33.0,45.2,0.408,735.4,2.1,1.050*
2018-06-25 02:20:00,-3.773E-01,4C000000*,-702.6,964.597,89,32.9,44.8,0.408,735.7,2.1,1.050*
2018-06-25 02:21:00,-2.842E-01,4C000000*,-702.6,965.001,90,32.9,45.2,0.408,735.4,2.1,1.050*
2018-06-25 02:22:00,-2.877E-01,4C000000*,-702.6,964.597,89,32.9,44.9,0.408,735.4,2.1,1.050*
2018-06-25 02:23:00,-3.004E-01,4C000000*,-702.3,965.001,89,32.9,45.1,0.408,735.7,2.1,1.050*
2018-06-25 02:24:00,-3.154E-01,4C000000*,-702.6,964.597,89,32.9,45.0,0.408,735.4,2.1,1.050*
2018-06-25 02:25:00,-2.851E-01,4C000000*,-702.6,965.809,89,32.9,44.9,0.408,735.4,2.1,1.050*
2018-06-25 02:26:00,-3.895E-01,4C000000*,-702.3,963.384,90,32.9,45.2,0.408,735.4,2.1,1.050*
2018-06-25 02:27:00,-3.929E-01,4C000000*,-702.6,964.597,90,32.9,44.9,0.408,735.4,2.1,1.050*
2018-06-25 02:28:00,-3.652E-01,4C000000*,-702.6,965.405,90,32.9,45.2,0.408,735.4,2.1,1.050*
2018-06-25 02:29:00,-3.223E-01,4C000000*,-702.3,965.405,90,32.9,44.9,0.408,735.4,2.1,1.050*
2018-06-25 02:30:00,-3.830E-01,4C000000*,-702.6,964.192,89,32.9,45.1,0.408,735.4,2.1,1.050*
2018-06-25 02:31:00,-2.964E-01,4C000000*,-702.6,965.809,90,32.9,45.0,0.408,735.4,2.1,1.050*
2018-06-25 02:32:00,-3.423E-01,4C000000*,-702.3,964.192,90,32.9,45.0,0.408,735.7,2.1,1.050*
2018-06-25 02:33:00,-2.903E-01,4C000000*,-702.6,965.001,90,32.9,45.2,0.408,735.4,2.1,1.050*
2018-06-25 02:34:00,-4.136E-01,4C000000*,-702.6,964.192,89,32.8,44.9,0.408,735.4,2.1,1.050*
2018-06-25 02:35:00,-3.948E-01,4C000000*,-702.6,964.192,90,32.9,45.1,0.408,735.7,2.1,1.050*
2018-06-25 02:36:00,-3.331E-01,4C000000*,-702.6,965.001,90,32.8,44.8,0.408,735.4,2.1,1.050*
2018-06-25 02:37:00,-3.085E-01,4C000000*,-702.6,964.192,90,32.9,45.2,0.408,735.7,2.1,1.050*
2018-06-25 02:38:00,-3.759E-01,4C000000*,-702.3,964.597,89,32.9,45.1,0.408,735.7,2.1,1.050*
2018-06-25 02:39:00,-3.580E-01,4C000000*,-702.6,965.001,90,32.9,45.0,0.408,735.7,2.1,1.050*
2018-06-25 02:40:00,-3.500E-01,4C000000*,-702.6,964.597,89,32.9,45.1,0.408,735.4,2.1,1.050*
2018-06-25 02:41:00,-3.744E-01,4C000000*,-703.0,965.001,90,32.8,44.9,0.408,735.7,2.1,1.050*
2018-06-25 02:42:00,-2.956E-01,4C000000*,-702.3,965.405,89,32.9,45.2,0.408,735.4,2.1,1.050*
2018-06-25 02:43:00,-3.282E-01,4C000000*,-702.6,964.597,89,32.8,44.9,0.408,735.7,2.1,1.050*
2018-06-25 02:44:00,-4.473E-01,4C000000*,-702.6,964.597,89,32.9,45.2,0.408,735.7,2.1,1.050*
2018-06-25 02:45:00,-3.764E-01,4C000000*,-702.6,965.001,90,32.8,45.0,0.408,735.7,2.1,1.050*
2018-06-25 02:46:00,-2.829E-01,4C000000*,-702.6,963.788,91,32.8,45.0,0.408,735.7,2.1,1.050*
2018-06-25 02:47:00,-3.384E-01,4C000000*,-703.0,964.192,90,32.8,45.0,0.408,735.4,2.1,1.050*
2018-06-25 02:48:00,-2.886E-01,4C000000*,-702.3,965.405,90,32.8,44.9,0.408,735.7,2.1,1.050*
2018-06-25 02:49:00,-3.702E-01,4C000000*,-702.3,964.192,91,32.8,45.2,0.408,735.7,2.1,1.050*
2018-06-25 02:50:00,-3.943E-01,4C000000*,-702.6,965.809,90,32.8,44.9,0.408,735.7,2.1,1.050*
2018-06-25 02:51:00,-3.812E-01,4C000000*,-702.3,964.597,88,32.8,45.2,0.408,735.7,2.1,1.050*
2018-06-25 02:52:00,-3.254E-01,4C000000*,-702.6,966.214,91,32.8,45.0,0.408,735.7,2.1,1.050*
2018-06-25 02:53:00,-3.514E-01,4C000000*,-703.0,964.597,89,32.8,45.0,0.408,735.7,2.1,1.050*
2018-06-25 02:54:00,-3.802E-01,4C000000*,-702.6,964.597,89,32.8,45.0,0.408,735.4,2.1,1.050*
2018-06-25 02:55:00,-3.514E-01,4C000000*,-702.6,965.001,91,32.8,44.9,0.408,735.7,2.1,1.050*
2018-06-25 02:56:00,-3.485E-01,4C000000*,-702.6,965.001,90,32.7,45.2,0.408,735.7,2.1,1.050*
2018-06-25 02:57:00,-3.731E-01,4C000000*,-702.6,964.597,89,32.7,44.8,0.408,735.7,2.1,1.050*
2018-06-25 02:58:00,-4.063E-01,4C000000*,-702.6,965.001,88,32.8,45.2,0.408,735.7,2.1,1.050*
2018-06-25 02:59:00,-3.941E-01,4C000000*,-702.6,965.405,90,32.8,44.9,0.408,735.4,2.1,1.050*
2018-06-25 03:00:00,-4.402E-01,4C000000*,-702.6,965.001,88,32.8,45.0,0.408,735.7,2.1,1.050*
2018-06-25 03:01:00,-3.827E-01,4C000000*,-702.6,966.618,91,32.7,45.1,0.408,735.7,2.1,1.050*
2018-06-25 03:02:00,-2.510E-01,4C000000*,-702.3,964.597,90,32.7,44.9,0.408,735.7,2.1,1.050*
2018-06-25 03:03:00,-3.224E-01,4C000000*,-702.6,964.597,90,32.8,45.2,0.408,735.7,2.1,1.050*
2018-06-25 03:04:00,-3.388E-01,4C000000*,-702.6,964.597,90,32.7,44.9,0.408,735.7,2.1,1.050*
2018-06-25 03:05:00,-3.869E-01,4C000000*,-702.3,964.597,89,32.7,45.1,0.408,735.7,2.1,1.050*
2018-06-25 03:06:00,-3.863E-01,4C000000*,-702.6,965.405,90,32.8,44.9,0.408,736.0,2.1,1.050*
2018-06-25 03:07:00,-4.025E-01,4C000000*,-702.3,965.405,89,32.8,45.1,0.408,735.7,2.1,1.050*
2018-06-25 03:08:00,-3.485E-01,4C000000*,-702.6,964.597,90,32.7,45.1,0.408,735.7,2.1,1.050*
2018-06-25 03:09:00,-4.143E-01,4C000000*,-702.3,964.192,89,32.7,45.0,0.408,735.7,2.1,1.050*
2018-06-25 03:10:00,-3.866E-01,4C000000*,-702.6,964.597,91,32.7,45.1,0.408,736.0,2.1,1.050*
2018-06-25 03:11:00,-2.965E-01,4C000000*,-703.0,965.809,90,32.7,44.9,0.408,736.0,2.1,1.050*
2018-06-25 03:12:00,-3.457E-01,4C000000*,-702.6,964.597,90,32.7,45.2,0.408,735.7,2.1,1.050*
2018-06-25 03:13:00,-2.970E-01,4C000000*,-702.6,966.618,90,32.7,44.9,0.408,735.7,2.1,1.050*
2018-06-25 03:14:00,-3.597E-01,4C000000*,-702.6,964.597,89,32.7,45.2,0.408,735.7,2.1,1.050*
2018-06-25 03:15:00,-3.387E-01,4C000000*,-703.0,965.809,90,32.7,45.1,0.408,735.7,2.1,1.050*
2018-06-25 03:16:00,-3.227E-01,4C000000*,-702.6,965.809,90,32.7,45.0,0.408,735.7,2.1,1.050*
2018-06-25 03:17:00,-3.556E-01,4C000000*,-702.3,966.214,91,32.6,45.1,0.408,735.7,2.1,1.050*
2018-06-25 03:18:00,-3.304E-01,4C000000*,-702.6,965.809,90,32.7,44.9,0.409,735.7,2.1,1.050*
2018-06-25 03:19:00,-3.072E-01,4C000000*,-702.6,965.809,89,32.7,45.1,0.408,735.7,2.1,1.050*
2018-06-25 03:20:00,-3.807E-01,4C000000*,-702.6,965.405,90,32.7,44.8,0.408,736.0,2.1,1.050*
2018-06-25 03:21:00,-3.118E-01,4C000000*,-703.0,966.214,90,32.7,45.2,0.409,736.0,2.1,1.050*
2018-06-25 03:22:00,-3.642E-01,4C000000*,-702.6,965.405,91,32.7,45.0,0.408,735.7,2.1,1.050*
2018-06-25 03:23:00,-3.424E-01,4C000000*,-702.3,966.618,91,32.7,45.0,0.408,736.0,2.1,1.050*
2018-06-25 03:24:00,-4.079E-01,4C000000*,-702.6,966.214,90,32.7,45.1,0.408,736.0,2.1,1.050*
2018-06-25 03:25:00,-2.728E-01,4C000000*,-702.6,965.405,90,32.6,44.9,0.409,736.0,2.1,1.050*
2018-06-25 03:26:00,-3.720E-01,4C000000*,-702.6,965.405,90,32.6,45.2,0.408,736.0,2.1,1.050*
2018-06-25 03:27:00,-3.688E-01,4C000000*,-702.6,966.618,91,32.6,44.9,0.408,736.0,2.1,1.050*
2018-06-25 03:28:00,-3.855E-01,4C000000*,-702.6,965.809,90,32.6,45.2,0.408,736.0,2.1,1.050*
2018-06-25 03:29:00,-2.971E-01,4C000000*,-702.6,965.405,89,32.6,44.9,0.408,735.7,2.1,1.050*
2018-06-25 03:30:00,-4.037E-01,4C000000*,-702.6,966.618,90,32.6,45.0,0.409,736.0,2.1,1.050*
2018-06-25 03:31:00,-4.018E-01,4C000000*,-702.6,963.788,90,32.6,45.0,0.408,736.0,2.1,1.050*
2018-06-25 03:32:00,-2.561E-01,4C000000*,-702.6,965.001,89,32.6,44.9,0.408,736.0,2.1,1.050*
2018-06-25 03:33:00,-3.454E-01,4C000000*,-702.6,965.405,89,32.6,45.2,0.408,736.0,2.1,1.050*
2018-06-25 03:34:00,-4.014E-01,4C000000*,-702.6,965.809,90,32.6,44.9,0.409,736.0,2.1,1.050*
2018-06-25 03:35:00,-3.616E-01,4C000000*,-702.6,965.809,91,32.6,45.1,0.409,736.0,2.1,1.050*
2018-06-25 03:36:00,-3.992E-01,4C000000*,-702.3,965.809,91,32.6,44.9,0.409,736.0,2.1,1.050*
2018-06-25 03:37:00,-3.323E-01,4C000000*,-702.6,965.001,89,32.6,45.0,0.408,736.3,2.1,1.050*
2018-06-25 03:38:00,-3.212E-01,4C000000*,-702.6,965.809,90,32.6,45.1,0.408,736.0,2.1,1.050*
2018-06-25 03:39:00,-3.394E-01,4C000000*,-702.6,964.192,89,32.6,44.9,0.408,736.0,2.1,1.050*
2018-06-25 03:40:00,-3.955E-01,4C000000*,-702.6,965.001,90,32.6,45.2,0.408,736.0,2.1,1.050*
2018-06-25 03:41:00,-3.379E-01,4C000000*,-702.6,965.809,89,32.6,44.9,0.408,736.0,2.1,1.050*
2018-06-25 03:42:00,-3.345E-01,4C000000*,-702.6,965.809,88,32.6,45.1,0.408,736.0,2.1,1.050*
2018-06-25 03:43:00,-3.786E-01,4C000000*,-702.6,967.022,91,32.5,44.9,0.408,736.0,2.1,1.050*
2018-06-25 03:44:00,-3.659E-01,4C000000*,-702.6,963.788,90,32.6,45.1,0.408,736.0,2.1,1.050*
2018-06-25 03:45:00,-3.607E-01,4C000000*,-703.0,965.405,90,32.5,45.1,0.409,736.0,2.1,1.050*
2018-06-25 03:46:00,-2.746E-01,4C000000*,-702.6,966.214,91,32.5,44.9,0.408,736.3,2.1,1.050*
2018-06-25 03:47:00,-3.804E-01,4C000000*,-703.0,965.001,89,32.6,45.2,0.408,736.0,2.1,1.050*
2018-06-25 03:48:00,-3.249E-01,4C000000*,-703.0,966.618,90,32.5,44.8,0.408,736.0,2.1,1.050*
2018-06-25 03:49:00,-3.124E-01,4C000000*,-703.0,965.809,92,32.5,45.1,0.408,736.0,2.1,1.050*
2018-06-25 03:50:00,-2.926E-01,4C000000*,-702.6,965.809,91,32.5,44.9,0.408,736.0,2.1,1.050*
2018-06-25 03:51:00,-3.458E-01,4C000000*,-703.0,965.809,91,32.6,45.2,0.408,736.0,2.1,1.050*
2018-06-25 03:52:00,-3.289E-01,4C000000*,-702.3,966.214,90,32.5,45.0,0.409,736.0,2.1,1.050*
2018-06-25 03:53:00,-4.055E-01,4C000000*,-702.6,965.001,88,32.5,45.0,0.408,736.0,2.1,1.050*
2018-06-25 03:54:00,-3.807E-01,4C000000*,-701.9,965.405,89,32.5,45.1,0.408,736.0,2.1,1.050*
2018-06-25 03:55:00,-3.870E-01,4C000000*,-703.0,965.809,89,32.5,44.9,0.408,736.0,2.1,1.050*
2018-06-25 03:56:00,-4.234E-01,4C000000*,-702.6,966.214,90,32.5,45.1,0.408,736.0,2.1,1.050*
2018-06-25 03:57:00,-3.834E-01,4C000000*,-702.3,966.214,89,32.5,44.9,0.409,736.0,2.1,1.050*
2018-06-25 03:58:00,-3.502E-01,4C000000*,-701.9,965.001,90,32.4,45.2,0.408,736.0,2.1,1.050*
2018-06-25 03:59:00,-3.840E-01,4C000000*,-702.6,965.405,90,32.5,45.0,0.408,736.0,2.1,1.050*
2018-06-25 04:00:00,-3.069E-01,4C000000*,-702.6,965.001,90,32.5,45.1,0.408,736.3,2.1,1.050*
2018-06-25 04:01:00,-3.224E-01,4C000000*,-702.6,966.214,91,32.5,45.0,0.408,736.0,2.1,1.050*
2018-06-25 04:02:00,-3.251E-01,4C000000*,-702.6,965.001,90,32.4,44.9,0.408,736.3,2.1,1.050*
2018-06-25 04:03:00,-3.882E-01,4C000000*,-702.6,965.405,88,32.4,45.2,0.408,736.3,2.1,1.050*
2018-06-25 04:04:00,-3.268E-01,4C000000*,-702.6,965.809,90,32.4,44.8,0.408,736.3,2.1,1.050*
2018-06-25 04:05:00,-3.851E-01,4C000000*,-702.6,963.788,89,32.4,45.2,0.409,736.3,2.1,1.050*
2018-06-25 04:06:00,-3.215E-01,4C000000*,-702.6,965.001,91,32.4,44.9,0.408,736.0,2.1,1.050*
2018-06-25 04:07:00,-3.441E-01,4C000000*,-703.0,965.001,90,32.4,45.0,0.408,736.3,2.1,1.050*
2018-06-25 04:08:00,-3.232E-01,4C000000*,-702.6,966.214,88,32.4,45.1,0.408,736.3,2.1,1.050*
2018-06-25 04:09:00,-3.569E-01,4C000000*,-702.6,965.405,91,32.4,44.9,0.408,736.3,2.1,1.050*
2018-06-25 04:10:00,-3.864E-01,4C000000*,-702.3,965.001,91,32.4,45.2,0.409,736.3,2.1,1.050*
2018-06-25 04:11:00,-3.508E-01,4C000000*,-702.6,965.809,89,32.4,44.8,0.408,736.3,2.1,1.050*
2018-06-25 04:12:00,-3.282E-01,4C000000*,-702.3,965.405,90,32.4,45.2,0.408,736.6,2.1,1.050*
2018-06-25 04:13:00,-2.636E-01,4C000000*,-702.6,965.405,90,32.4,44.9,0.408,736.6,2.1,1.050*
2018-06-25 04:14:00,-2.999E-01,4C000000*,-702.6,965.405,91,32.4,45.1,0.408,736.6,2.1,1.050*